Time,TemperatureF,DewpointF,PressureIn,WindDirection,WindDirectionDegrees,WindSpeedMPH,WindSpeedGustMPH,Humidity,HourlyPrecipIn,Conditions,Clouds,dailyrainin,SoftwareType,DateUTC
2013-06-12 00:05:00,76.8,73.0,30.04,WNW,302,0.0,-999.0,87,-99.99,,,0.00,weatherlink.com 1.10,2013-06-12 04:05:00,
2013-06-12 00:20:00,76.4,73.0,30.05,WNW,302,0.0,-999.0,88,-99.99,,,0.00,weatherlink.com 1.10,2013-06-12 04:20:00,
2013-06-12 00:35:00,76.0,73.0,30.05,WNW,302,0.0,-999.0,89,-99.99,,,0.00,weatherlink.com 1.10,2013-06-12 04:35:00,
2013-06-12 00:50:00,75.7,72.0,30.05,WNW,302,0.0,-999.0,89,-99.99,,,0.00,weatherlink.com 1.10,2013-06-12 04:50:00,
2013-06-12 01:06:00,75.3,72.0,30.04,WNW,302,0.0,-999.0,90,-99.99,,,0.00,weatherlink.com 1.10,2013-06-12 05:06:00,
2013-06-12 01:21:00,75.1,72.0,30.04,West,281,0.0,-999.0,90,-99.99,,,0.00,weatherlink.com 1.10,2013-06-12 05:21:00,
2013-06-12 01:36:00,75.0,72.0,30.04,West,281,0.0,-999.0,90,-99.99,,,0.00,weatherlink.com 1.10,2013-06-12 05:36:00,
2013-06-12 01:51:00,74.6,72.0,30.04,West,281,0.0,-999.0,90,-99.99,,,0.00,weatherlink.com 1.10,2013-06-12 05:51:00,
2013-06-12 02:06:00,74.6,72.0,30.04,WNW,282,0.0,-999.0,91,-99.99,,,0.00,weatherlink.com 1.10,2013-06-12 06:06:00,
2013-06-12 02:21:00,74.5,72.0,30.03,West,279,0.0,-999.0,91,-99.99,,,0.00,weatherlink.com 1.10,2013-06-12 06:21:00,
2013-06-12 02:36:00,74.7,72.0,30.03,WSW,253,0.0,-999.0,91,-99.99,,,0.00,weatherlink.com 1.10,2013-06-12 06:36:00,
2013-06-12 02:51:00,74.9,72.0,30.03,SW,223,0.0,-999.0,91,-99.99,,,0.00,weatherlink.com 1.10,2013-06-12 06:51:00,
2013-06-12 03:06:00,74.5,72.0,30.03,West,265,0.0,-999.0,91,-99.99,,,0.00,weatherlink.com 1.10,2013-06-12 07:06:00,
2013-06-12 03:21:00,74.0,71.0,30.03,West,265,0.0,-999.0,91,-99.99,,,0.00,weatherlink.com 1.10,2013-06-12 07:21:00,
2013-06-12 03:36:00,73.7,71.0,30.03,West,265,0.0,-999.0,91,-99.99,,,0.00,weatherlink.com 1.10,2013-06-12 07:36:00,
2013-06-12 03:51:00,73.4,71.0,30.04,West,265,0.0,-999.0,91,-99.99,,,0.00,weatherlink.com 1.10,2013-06-12 07:51:00,
2013-06-12 04:06:00,73.4,71.0,30.04,West,265,0.0,-999.0,91,-99.99,,,0.00,weatherlink.com 1.10,2013-06-12 08:06:00,
2013-06-12 04:21:00,73.5,71.0,30.03,West,265,0.0,-999.0,91,-99.99,,,0.00,weatherlink.com 1.10,2013-06-12 08:21:00,
2013-06-12 04:36:00,73.6,71.0,30.03,West,265,0.0,-999.0,91,-99.99,,,0.00,weatherlink.com 1.10,2013-06-12 08:36:00,
2013-06-12 04:51:00,73.4,71.0,30.03,West,265,0.0,-999.0,91,-99.99,,,0.00,weatherlink.com 1.10,2013-06-12 08:51:00,
2013-06-12 05:06:00,72.8,70.0,30.04,West,265,0.0,-999.0,91,-99.99,,,0.00,weatherlink.com 1.10,2013-06-12 09:06:00,
2013-06-12 05:21:00,73.1,70.0,30.04,West,265,0.0,-999.0,91,-99.99,,,0.00,weatherlink.com 1.10,2013-06-12 09:21:00,
2013-06-12 05:36:00,72.9,70.0,30.04,West,265,0.0,-999.0,91,-99.99,,,0.00,weatherlink.com 1.10,2013-06-12 09:36:00,
2013-06-12 05:51:00,72.9,71.0,30.04,West,265,0.0,-999.0,92,-99.99,,,0.00,weatherlink.com 1.10,2013-06-12 09:51:00,
2013-06-12 06:06:00,72.5,70.0,30.04,West,265,0.0,-999.0,91,-99.99,,,0.00,weatherlink.com 1.10,2013-06-12 10:06:00,
2013-06-12 06:21:00,72.4,70.0,30.05,West,265,0.0,-999.0,91,-99.99,,,0.00,weatherlink.com 1.10,2013-06-12 10:21:00,
2013-06-12 06:36:00,72.4,70.0,30.05,West,265,0.0,-999.0,91,-99.99,,,0.00,weatherlink.com 1.10,2013-06-12 10:36:00,
2013-06-12 06:51:00,72.6,70.0,30.05,West,265,0.0,-999.0,91,-99.99,,,0.00,weatherlink.com 1.10,2013-06-12 10:51:00,
2013-06-12 07:06:00,72.5,70.0,30.06,SW,231,0.0,-999.0,91,-99.99,,,0.00,weatherlink.com 1.10,2013-06-12 11:06:00,
2013-06-12 07:21:00,73.1,70.0,30.07,WSW,237,0.0,-999.0,91,-99.99,,,0.00,weatherlink.com 1.10,2013-06-12 11:21:00,
2013-06-12 07:36:00,73.9,71.0,30.07,WSW,237,0.0,-999.0,91,-99.99,,,0.00,weatherlink.com 1.10,2013-06-12 11:36:00,
2013-06-12 07:51:00,74.7,72.0,30.07,WNW,286,0.0,-999.0,91,-99.99,,,0.00,weatherlink.com 1.10,2013-06-12 11:51:00,
2013-06-12 08:06:00,76.0,73.0,30.08,WNW,290,0.0,-999.0,91,-99.99,,,0.00,weatherlink.com 1.10,2013-06-12 12:06:00,
2013-06-12 08:21:00,76.8,73.0,30.08,NW,326,0.0,-999.0,89,-99.99,,,0.00,weatherlink.com 1.10,2013-06-12 12:21:00,
2013-06-12 08:36:00,77.6,74.0,30.09,North,360,0.0,-999.0,89,-99.99,,,0.00,weatherlink.com 1.10,2013-06-12 12:36:00,
2013-06-12 08:51:00,78.5,74.0,30.09,NNW,331,1.0,-999.0,86,-99.99,,,0.00,weatherlink.com 1.10,2013-06-12 12:51:00,
2013-06-12 09:06:00,79.1,74.0,30.09,NNW,338,5.0,-999.0,85,-99.99,,,0.00,weatherlink.com 1.10,2013-06-12 13:06:00,
2013-06-12 09:21:00,79.8,74.0,30.09,NNW,338,6.0,-999.0,83,-99.99,,,0.00,weatherlink.com 1.10,2013-06-12 13:21:00,
2013-06-12 09:36:00,80.0,74.0,30.08,WNW,294,0.0,-999.0,83,-99.99,,,0.00,weatherlink.com 1.10,2013-06-12 13:36:00,
2013-06-12 09:51:00,80.6,75.0,30.09,NNW,342,8.0,-999.0,82,-99.99,,,0.00,weatherlink.com 1.10,2013-06-12 13:51:00,
2013-06-12 10:06:00,80.9,75.0,30.08,NNW,338,6.0,-999.0,81,-99.99,,,0.00,weatherlink.com 1.10,2013-06-12 14:06:00,
2013-06-12 10:21:00,81.4,75.0,30.08,NNW,338,5.0,-999.0,81,-99.99,,,0.00,weatherlink.com 1.10,2013-06-12 14:21:00,
2013-06-12 10:36:00,82.0,75.0,30.08,NW,323,10.0,-999.0,79,-99.99,,,0.00,weatherlink.com 1.10,2013-06-12 14:36:00,
2013-06-12 10:51:00,82.1,75.0,30.08,NW,319,7.0,-999.0,79,-99.99,,,0.00,weatherlink.com 1.10,2013-06-12 14:51:00,
2013-06-12 11:06:00,82.8,75.0,30.08,WNW,295,3.0,-999.0,78,-99.99,,,0.00,weatherlink.com 1.10,2013-06-12 15:06:00,
2013-06-12 11:21:00,83.1,76.0,30.09,NNW,346,7.0,-999.0,78,-99.99,,,0.00,weatherlink.com 1.10,2013-06-12 15:21:00,
2013-06-12 11:36:00,83.8,76.0,30.09,North,5,7.0,-999.0,77,-99.99,,,0.00,weatherlink.com 1.10,2013-06-12 15:36:00,
2013-06-12 11:52:00,84.0,76.0,30.10,NNE,19,6.0,-999.0,77,-99.99,,,0.00,weatherlink.com 1.10,2013-06-12 15:52:00,
2013-06-12 12:06:00,85.2,77.0,30.09,North,360,3.0,-999.0,76,-99.99,,,0.00,weatherlink.com 1.10,2013-06-12 16:06:00,
2013-06-12 12:21:00,85.5,76.0,30.09,NNE,22,11.0,-999.0,72,-99.99,,,0.00,weatherlink.com 1.10,2013-06-12 16:21:00,
2013-06-12 12:36:00,85.5,76.0,30.09,North,355,6.0,-999.0,72,-99.99,,,0.00,weatherlink.com 1.10,2013-06-12 16:36:00,
2013-06-12 12:51:00,86.6,76.0,30.08,North,11,5.0,-999.0,70,-99.99,,,0.00,weatherlink.com 1.10,2013-06-12 16:51:00,
2013-06-12 13:06:00,87.3,76.0,30.08,NNE,27,4.0,-999.0,69,-99.99,,,0.00,weatherlink.com 1.10,2013-06-12 17:06:00,
2013-06-12 13:21:00,87.8,76.0,30.07,NNW,331,4.0,-999.0,67,-99.99,,,0.00,weatherlink.com 1.10,2013-06-12 17:21:00,
2013-06-12 13:36:00,88.2,75.0,30.08,NNW,333,5.0,-999.0,66,-99.99,,,0.00,weatherlink.com 1.10,2013-06-12 17:36:00,
2013-06-12 13:51:00,88.2,75.0,30.07,WNW,292,7.0,-999.0,66,-99.99,,,0.00,weatherlink.com 1.10,2013-06-12 17:51:00,
2013-06-12 14:06:00,88.8,73.0,30.07,NW,316,3.0,-999.0,59,-99.99,,,0.00,weatherlink.com 1.10,2013-06-12 18:06:00,
2013-06-12 14:21:00,88.4,75.0,30.07,West,269,0.0,-999.0,65,-99.99,,,0.00,weatherlink.com 1.10,2013-06-12 18:21:00,
2013-06-12 14:36:00,89.6,73.0,30.07,NNE,22,5.0,-999.0,59,-99.99,,,0.00,weatherlink.com 1.10,2013-06-12 18:36:00,
2013-06-12 14:51:00,89.2,73.0,30.06,NNW,333,6.0,-999.0,59,-99.99,,,0.00,weatherlink.com 1.10,2013-06-12 18:51:00,
2013-06-12 15:06:00,89.4,72.0,30.06,North,10,5.0,-999.0,57,-99.99,,,0.00,weatherlink.com 1.10,2013-06-12 19:06:00,
2013-06-12 15:21:00,90.1,75.0,30.06,North,355,9.0,-999.0,61,-99.99,,,0.00,weatherlink.com 1.10,2013-06-12 19:21:00,
2013-06-12 15:36:00,89.3,72.0,30.05,WNW,288,3.0,-999.0,57,-99.99,,,0.00,weatherlink.com 1.10,2013-06-12 19:36:00,
2013-06-12 15:51:00,89.5,74.0,30.05,West,259,2.0,-999.0,60,-99.99,,,0.00,weatherlink.com 1.10,2013-06-12 19:51:00,
2013-06-12 16:06:00,90.2,72.0,30.04,West,278,0.0,-999.0,55,-99.99,,,0.00,weatherlink.com 1.10,2013-06-12 20:06:00,
2013-06-12 16:22:00,89.6,73.0,30.03,NW,304,0.0,-999.0,59,-99.99,,,0.00,weatherlink.com 1.10,2013-06-12 20:22:00,
2013-06-12 16:37:00,90.8,71.0,30.03,NNW,333,1.0,-999.0,53,-99.99,,,0.00,weatherlink.com 1.10,2013-06-12 20:37:00,
2013-06-12 16:52:00,90.0,71.0,30.03,NNW,336,6.0,-999.0,54,-99.99,,,0.00,weatherlink.com 1.10,2013-06-12 20:52:00,
2013-06-12 17:07:00,90.5,72.0,30.02,WSW,252,4.0,-999.0,54,-99.99,,,0.00,weatherlink.com 1.10,2013-06-12 21:07:00,
2013-06-12 17:22:00,90.7,71.0,30.02,NW,321,5.0,-999.0,52,-99.99,,,0.00,weatherlink.com 1.10,2013-06-12 21:22:00,
2013-06-12 17:37:00,90.9,67.0,30.01,NW,313,4.0,-999.0,45,-99.99,,,0.00,weatherlink.com 1.10,2013-06-12 21:37:00,
2013-06-12 17:52:00,90.5,68.0,30.01,WNW,298,1.0,-999.0,47,-99.99,,,0.00,weatherlink.com 1.10,2013-06-12 21:52:00,
2013-06-12 18:07:00,90.3,68.0,30.00,NW,323,6.0,-999.0,48,-99.99,,,0.00,weatherlink.com 1.10,2013-06-12 22:07:00,
2013-06-12 18:37:00,90.5,69.0,30.00,West,275,0.0,-999.0,50,-99.99,,,0.00,weatherlink.com 1.10,2013-06-12 22:37:00,
2013-06-12 18:52:00,90.2,70.0,30.00,West,280,0.0,-999.0,52,-99.99,,,0.00,weatherlink.com 1.10,2013-06-12 22:52:00,
2013-06-12 19:07:00,90.1,71.0,29.99,NNW,332,0.0,-999.0,54,-99.99,,,0.00,weatherlink.com 1.10,2013-06-12 23:07:00,
2013-06-12 19:22:00,88.8,72.0,29.99,WSW,254,0.0,-999.0,58,-99.99,,,0.00,weatherlink.com 1.10,2013-06-12 23:22:00,
2013-06-12 19:37:00,87.9,73.0,30.00,WSW,257,2.0,-999.0,61,-99.99,,,0.00,weatherlink.com 1.10,2013-06-12 23:37:00,
2013-06-12 19:53:00,87.3,74.0,30.00,WSW,257,1.0,-999.0,64,-99.99,,,0.00,weatherlink.com 1.10,2013-06-12 23:53:00,
2013-06-12 20:07:00,87.0,73.0,30.00,WSW,250,3.0,-999.0,64,-99.99,,,0.00,weatherlink.com 1.10,2013-06-13 00:07:00,
2013-06-12 20:22:00,86.1,73.0,30.00,WSW,247,1.0,-999.0,65,-99.99,,,0.00,weatherlink.com 1.10,2013-06-13 00:22:00,
2013-06-12 20:37:00,85.2,73.0,30.00,WSW,241,0.0,-999.0,67,-99.99,,,0.00,weatherlink.com 1.10,2013-06-13 00:37:00,
2013-06-12 20:52:00,84.4,73.0,30.00,WSW,239,0.0,-999.0,69,-99.99,,,0.00,weatherlink.com 1.10,2013-06-13 00:52:00,
2013-06-12 21:07:00,83.6,74.0,30.00,SW,229,0.0,-999.0,72,-99.99,,,0.00,weatherlink.com 1.10,2013-06-13 01:07:00,
2013-06-12 21:22:00,82.6,73.0,29.99,WSW,237,0.0,-999.0,73,-99.99,,,0.00,weatherlink.com 1.10,2013-06-13 01:22:00,
2013-06-12 21:37:00,81.8,74.0,29.99,SW,229,2.0,-999.0,76,-99.99,,,0.00,weatherlink.com 1.10,2013-06-13 01:37:00,
2013-06-12 21:52:00,81.4,73.0,30.00,WSW,254,0.0,-999.0,76,-99.99,,,0.00,weatherlink.com 1.10,2013-06-13 01:52:00,
2013-06-12 22:07:00,80.9,73.0,30.00,SW,219,0.0,-999.0,78,-99.99,,,0.00,weatherlink.com 1.10,2013-06-13 02:07:00,
2013-06-12 22:22:00,80.5,73.0,30.00,SW,225,0.0,-999.0,79,-99.99,,,0.00,weatherlink.com 1.10,2013-06-13 02:22:00,
2013-06-12 22:37:00,80.2,74.0,30.00,WSW,241,1.0,-999.0,80,-99.99,,,0.00,weatherlink.com 1.10,2013-06-13 02:37:00,
2013-06-12 22:52:00,79.7,74.0,30.00,WSW,239,0.0,-999.0,82,-99.99,,,0.00,weatherlink.com 1.10,2013-06-13 02:52:00,
2013-06-12 23:11:00,79.1,74.0,30.00,WSW,242,0.0,-999.0,83,-99.99,,,0.00,weatherlink.com 1.10,2013-06-13 03:11:00,
2013-06-12 23:22:00,78.9,73.0,30.00,WSW,242,0.0,-999.0,82,-99.99,,,0.00,weatherlink.com 1.10,2013-06-13 03:22:00,
2013-06-12 23:37:00,78.6,73.0,30.00,SW,219,0.0,-999.0,83,-99.99,,,0.00,weatherlink.com 1.10,2013-06-13 03:37:00,
2013-06-12 23:53:00,78.4,73.0,30.00,SW,228,0.0,-999.0,83,-99.99,,,0.00,weatherlink.com 1.10,2013-06-13 03:53:00,